Miscellaneous Local Product
Issued by NWS Hastings, NE

Home | Current Version | Previous Version | Graphics & Text | Print | Product List | Glossary On
Versions: 1 2 3 4 5 6 7 8 9 10 11 12 13 14 15 16 17 18 19 20 21 22 23 24 25 26 27 28 29 30 31 32 33 34 35 36 37 38 39 40 41 42 43 44 45 46 47 48 49 50
000
AXUS43 KGID 232302
MISGRI

GID CWA HOURLY WEATHER ROUNDUP
NATIONAL WEATHER SERVICE HASTINGS NE
500 PM CST SUN NOV 23 2014

NOTE: "FAIR" INDICATES FEW OR NO CLOUDS BELOW 12,000 FEET WITH NO
SIGNIFICANT WEATHER AND/OR OBSTRUCTIONS TO VISIBILITY.

...SOUTH CENTRAL NEBRASKA...

CITY           SKY/WX    TMP DP  RH WIND       PRES   REMARKS
GRAND ISLAND   CLOUDY    44  27  51 N20       29.59R
HASTINGS       CLOUDY    42  29  59 N10       29.58R
KEARNEY        CLOUDY    46  18  31 NW18G30   29.62R
ORD            CLOUDY    45  22  40 N28G41    29.61R
YORK           CLOUDY    41  32  70 N14       29.57R
AURORA         CLOUDY    42  31  66 N15       29.58R
LEXINGTON      MOCLDY    48  17  29 NW20G32   29.64R
HOLDREGE       CLOUDY    47  17  29 N25G38    29.61R
HEBRON         CLOUDY    43  33  67 N13       29.56R

...NEBRASKA PANHANDLE...

CITY           SKY/WX    TMP DP  RH WIND       PRES   REMARKS
CHADRON        MOCLDY    38  21  50 NW16G28   29.79R WCI  29
ALLIANCE       PTCLDY    36  17  46 N17       29.76R WCI  26
SCOTTSBLUFF    PTCLDY    38  17  42 NW21      29.80R WCI  28
SIDNEY         CLEAR     39  10  30 N28G41    29.77R WCI  28

...WESTERN AND NORTH CENTRAL NEBRASKA...

CITY           SKY/WX    TMP DP  RH WIND       PRES   REMARKS
VALENTINE      MOCLDY    40  22  48 NW29G45   29.65R WCI  29
AINSWORTH      PTCLDY    41  21  44 NW26G37   29.65R
ONEILL         MOCLDY    43  26  51 NW24G32   29.60R
BROKEN BOW     PTCLDY    45  20  36 NW38G48   29.63R
IMPERIAL       CLEAR     42  10  27 N22G36    29.74R
NORTH PLATTE   CLEAR     45  15  30 NW20G30   29.68R
MCCOOK         MOCLDY    48  10  21 NW22      29.68R

...EASTERN NEBRASKA...

CITY           SKY/WX    TMP DP  RH WIND       PRES   REMARKS
NORFOLK        CLOUDY    42  29  59 NW17      29.56R
SO SIOUX CITY  CLOUDY    44  33  65 NW17G24   29.54R
TEKAMAH        CLOUDY    44  33  65 NW18      29.53S
COLUMBUS       CLOUDY    41  28  60 N14       29.58R
ALBION         CLOUDY    43  28  54 N17G25    29.58R
OMAHA EPPLEY   CLOUDY    44  34  67 N20G25    29.52R
OFFUTT AFB     CLOUDY    43  35  73 N15G23    29.50S
MILLARD        CLOUDY    45  34  65 NW13G24   29.51R
LINCOLN        CLOUDY    44  31  60 N24G33    29.55R
NEBRASKA CITY  LGT RAIN  41  37  88 N22G33    29.49R
BEATRICE       CLOUDY    43  34  70 N21G26    29.52S
FALLS CITY     LGT RAIN  44  38  79 NW20G33   29.46R

...NORTHERN KANSAS...

CITY           SKY/WX    TMP DP  RH WIND       PRES   REMARKS
GOODLAND       CLEAR     43  12  28 N22G31    29.73R
HILL CITY      CLOUDY    49  17  28 N21       29.65R
NORTON         CLEAR     48  12  23 NW17G24   29.64R
PHILLIPSBURG   CLEAR     50  21  32 NW14G23   29.63R
SMITH CENTER   CLEAR     45  27  49 NW9       29.61R
BELOIT         CLEAR     45  32  61 NW13      29.58R
HAYS           CLOUDY    46  23  39 N17       29.63R
RUSSELL        CLOUDY    44  31  60 N14       29.60R
CONCORDIA      CLOUDY    43  35  73 N9        29.57R
SALINA         CLOUDY    44  39  82 NW13      29.58R
TOPEKA         LGT RAIN  46  41  82 NW14G29   29.45R



USA.gov is the U.S. government's official web portal to all federal, state and local government web resources and services.